Simultaneous Nadir Overpasses (SNOs) Predictions

Prediction of SNOs between METOP-B and NOAA-19 Satellite Orbit:

Table of predicted SNOs for the next 14.0 days since TLE Epoch: 11/30/2012
Index Date (METOP-B) Time (METOP-B) METOP-B Lat,Lon Date (NOAA-19) Time (NOAA-19) NOAA-19 Lat,Lon Distance(km) Time Diff (sec)
1 12/05/2012 23:11:39 -73.80, 6.42 12/05/2012 23:10:32 -73.80, 3.64 86.18 67
2 12/06/2012 00:02:30 73.20, 172.36 12/06/2012 00:01:23 73.19, 172.30 2.11 67
3 12/06/2012 00:53:14 -73.14, -20.45 12/06/2012 00:52:24 -73.16, -20.40 3.30 50
4 12/06/2012 01:43:53 73.13, 146.87 12/06/2012 01:43:27 73.15, 146.88 2.09 26
5 12/06/2012 02:34:36 -73.12, -45.83 12/06/2012 02:34:28 -73.12, -45.82 0.36 8
6 12/06/2012 03:25:15 73.11, 121.49 12/06/2012 03:25:31 73.10, 121.46 1.16 16
7 12/06/2012 04:15:58 -73.10, -71.21 12/06/2012 04:16:32 -73.08, -71.24 2.62 34
8 12/06/2012 05:06:38 73.04, 96.00 12/06/2012 05:07:35 73.06, 96.03 2.60 57
9 12/06/2012 05:57:22 -72.98, -96.81 12/06/2012 05:58:36 -73.04, -96.67 7.66 74




NCC Satellite Simultaneous Nadir Overpasses (SNOs) Prediction Service
